Regional Weather Roundup
Issued by NWS

Home | Current Version | Previous Version | Graphics & Text | Print | Product List | Glossary On
Versions: 1 2 3 4 5 6 7 8 9 10 11 12 13 14 15 16 17 18 19 20 21 22 23 24 25 26 27 28 29 30 31 32 33 34 35 36 37 38 39 40 41 42 43 44 45 46 47 48 49 50
000
ASUS43 KIND 290559
RWRIN

WEATHER ROUNDUP FOR INDIANA
NATIONAL WEATHER SERVICE INDIANAPOLIS IN
200 AM EDT SUN MAY 29 2016

NOTE: "FAIR" INDICATES FEW OR NO CLOUDS BELOW 12,000 FEET WITH NO
SIGNIFICANT WEATHER AND/OR OBSTRUCTIONS TO VISIBILITY.

* - STATION DOES NOT REPORT WEATHER SUCH AS PRECIPITATION OR FOG.

+ - STATION NOT QUALITY CONTROLLED BY THE NATIONAL WEATHER SERVICE.
    USE DATA WITH CAUTION...ESPECIALLY DEWPOINT AND RELATIVE
    HUMIDITY OBSERVATIONS.

INZ001>003-010>013-019-020-290700-
NORTHWEST INDIANA

CITY           SKY/WX    TMP DP  RH WIND       PRES   REMARKS

$$

LMZ046-743>745-290700-
SOUTHERN LAKE MICHIGAN

STATION/POSITION TIME  TEMP    WIND        PRES    WAVE
                       AIR SEA DIR/SP/G            HT
                 (UTC) (F)     (DEG/KT/KT) (MB)    (FT)
BURNS HARBOR     0501   73     200/ 12/ 19 1015.6R
MICHIGAN CITY    0500   73     160/ 11/ 14   N/A
5NW MICH CITY    0500   67 57  200/  8/ 12   N/A     1

$$

INZ004-005-014>016-021>024-290700-
NORTH CENTRAL INDIANA

CITY           SKY/WX    TMP DP  RH WIND       PRES   REMARKS
GOSHEN         CLOUDY    71  64  78 S10       30.02S
6HR MIN TEMP:  70; 6HR MAX TEMP:  76;

SOUTH BEND     MOCLDY    71  64  78 S10       30.00F
6HR MIN TEMP:  71; 6HR MAX TEMP:  82;


$$

INZ006>009-017-018-025>027-290700-
NORTHEAST INDIANA

CITY           SKY/WX    TMP DP  RH WIND       PRES   REMARKS
ANGOLA *+        N/A     72  63  73 S6        30.04S
FORT WAYNE     CLOUDY    70  66  87 S7        30.05S
6HR MIN TEMP:  69; 6HR MAX TEMP:  75; 6HR PCP: TRACE;


$$

INZ028-029-035-036-043>045-051>053-290700-
WEST CENTRAL INDIANA

CITY           SKY/WX    TMP DP  RH WIND       PRES   REMARKS
CRAWFORDSVL +  PTCLDY    66  65  96 S3        30.04R
6HR MIN TEMP:  66; 6HR MAX TEMP:  76;

GREENCASTLE +  PTCLDY    68  68 100 S5        30.05S
LAFAYETTE      PTCLDY    67  65  93 S3        30.02R
6HR MIN TEMP:  67; 6HR MAX TEMP:  78;

TERRE HAUTE    CLEAR     71  66  84 S7        30.03S
6HR MIN TEMP:  70; 6HR MAX TEMP:  77;


$$

INZ030>032-037>040-046>048-054>057-064-065-290700-
CENTRAL INDIANA

CITY           SKY/WX    TMP DP  RH WIND       PRES   REMARKS
INDIANAPOLIS   CLOUDY    70  65  84 S9        30.03S
6HR MIN TEMP:  70; 6HR MAX TEMP:  75;

-EAGLE CREEK   CLOUDY    71  65  81 S3        30.04S
6HR MIN TEMP:  70; 6HR MAX TEMP:  77;

KOKOMO *+      CLOUDY    70  63  78 S6        30.04S
6HR MIN TEMP:  70; 6HR MAX TEMP:  79;

SHELBYVILLE    CLOUDY    72  65  78 S10       30.06S
6HR MIN TEMP:  72; 6HR MAX TEMP:  76;


$$

INZ033-034-041-042-049-050-058-059-290700-
EAST CENTRAL INDIANA

CITY           SKY/WX    TMP DP  RH WIND       PRES   REMARKS
MUNCIE         CLOUDY    71  65  81 S6        30.06S
6HR MIN TEMP:  71; 6HR MAX TEMP:  75; 6HR PCP:  0.01;


$$

INZ060-061-067>069-081>083-085>088-290700-
SOUTHWEST INDIANA

CITY           SKY/WX    TMP DP  RH WIND       PRES   REMARKS
EVANSVILLE     PTCLDY    71  66  84 CALM      30.05F
6HR MIN TEMP:  70; 6HR MAX TEMP:  79;

HUNTINGBURG *+ PTCLDY    70  64  83 S6        30.06S
6HR MIN TEMP:  70; 6HR MAX TEMP:  79;


$$

INZ062-063-066-070>080-084-089>092-290700-
SOUTH CENTRAL AND SOUTHEAST INDIANA

CITY           SKY/WX    TMP DP  RH WIND       PRES   REMARKS
BLOOMINGTON    PTCLDY    69  65  86 SE7       30.05F
6HR MIN TEMP:  69; 6HR MAX TEMP:  76;

MADISON *+     CLOUDY    68  61  77 S5        30.11S
SEYMOUR +      MOCLDY    72  64  78 CALM      30.07S

$$





USA.gov is the U.S. government's official web portal to all federal, state and local government web resources and services.